[[{"header":{"parameterUnit":"m.s-1","parameterCategory":1,"la1":30.2991,"la2":30.254,"lo1":-89.0895,"lo2":-89.0444,"dy":0.0017,"dx":0.0017,"nx":28,"ny":28,"refTime":"2025-11-22T03:00:00:Z","depth":0,"parameterNumber":2,"parameterNumberName":"U-component_of_WINDS"},"data":[0,0,0,0,0,0,0,0,0,0,0,0,0,0,0,0,0,0,0,0,0,0,0,0,0,0,0,0,0,0,0,0,0,0,0,0,0,0,0,0,0,0,0,0,0,0,0,0,0,0,0,0,0,0,0,0,0,0,0.9552,0.9552,0,0.9574,0.9574,0.9575,0.9565,0.9565,0.9564,0.9564,0.9587,0.9588,0.9589,0,0,0,0,0,0,0,0,0,0,0,0,0,0.9499,0.95,0.9552,0.9552,0.9552,0.9574,0.9574,0.9575,0.9565,0.9565,0.9564,0.9564,0.9586,0.9588,0.9589,0,0,0,0,0,0,0,0,0,0,0,0,0,0.9522,0.9501,0.9552,0.955,0.955,0.9574,0.9574,0.9575,0.9566,0.9565,0.9564,0.9563,0.9586,0.9587,0.9589,0.9615,0,0,0.9594,0.9595,0,0,0,0,0,0,0,0,0.9521,0.9524,0.955,0.955,0.955,0.9566,0.9564,0.9588,0.9566,0.956,0.9564,0.9563,0.958,0.9583,0.9588,0.9617,0.9617,0.9594,0.9595,0.9596,0.9597,0,0,0,0,0,0,0,0.9519,0.9523,0.956,0.955,0.9551,0.9548,0.955,0.9569,0.9574,0.956,0.956,0.9562,0.958,0.9587,0.9589,0.9618,0.9594,0.9596,0.9597,0.9597,0.9668,0.9668,0,0,0,0,0,0,0.9518,0.9522,0.956,0.9561,0.9533,0.955,0.9552,0.9562,0.9574,0.9575,0.9563,0.9562,0.9584,0.9587,0.959,0.9621,0.9596,0.9598,0.9599,0.9667,0.9668,0.9669,0,0,0,0,0,0,0.9517,0.9521,0.9559,0.9541,0.9546,0.9551,0.9562,0.9563,0.9569,0.9576,0.9577,0.9569,0.9584,0.9587,0.9609,0.9622,0.9598,0.96,0.9666,0.9667,0.9668,0.9685,0,0,0,0,0,0,0.9515,0.9521,0.9531,0.9542,0.9547,0.9578,0.9563,0.9564,0.9572,0.9571,0.9582,0.9583,0.9584,0.9606,0.9611,0.9624,0.9601,0.9665,0.9666,0.9668,0.9683,0.9686,0.9689,0,0,0,0,0,0.9513,0.9535,0.9532,0.9537,0.956,0.9579,0.9582,0.9582,0.9573,0.9584,0.9588,0.9583,0.9619,0.9609,0.9613,0.9627,0.9664,0.9666,0.9668,0.9682,0.9686,0.9689,0,0,0,0,0,0,0.9527,0.9537,0.9533,0.9559,0.9568,0.9577,0.9591,0.9587,0.9599,0.9597,0.9597,0.9599,0.9621,0.9626,0.9614,0.9653,0.964,0.9643,0.9649,0.9653,0.9656,0.9655,0.9603,0,0,0,0,0,0.9533,0.9548,0.9555,0.9577,0.9582,0.9586,0.9594,0.9593,0.9603,0.9606,0.9612,0.9621,0.9635,0.9644,0.9657,0.9683,0.9685,0.9695,0.9698,0.97,0.9703,0.9717,0.9721,0.9675,0.9675,0.9675,0,0,0.9546,0.9553,0.9562,0.958,0.9587,0.9602,0.9589,0.9606,0.9617,0.9609,0.963,0.9634,0.9644,0.9668,0.9679,0.9673,0.9716,0.9703,0.9705,0.9706,0.9719,0.9724,0.9728,0.9676,0.9676,0.9676,0,0,0.9577,0.9584,0.9603,0.961,0.962,0.9622,0.9626,0.9636,0.9638,0.9659,0.9653,0.9666,0.9689,0.9697,0.9704,0.9735,0.9731,0.9739,0.9756,0.977,0.9773,0.9777,0.9788,0.9792,0.9742,0.9742,0.9742,0,0.9592,0.9615,0.9613,0.963,0.9638,0.9631,0.965,0.9656,0.9671,0.9676,0.9669,0.9697,0.9704,0.9729,0.9736,0.9742,0.9747,0.9739,0.9773,0.9776,0.9779,0.979,0.9795,0.9743,0.9743,0.9743,0.9743,0,0.9632,0.9648,0.9662,0.9676,0.9685,0.9703,0.9703,0.9713,0.971,0.9713,0.9733,0.974,0.9754,0.9759,0.9758,0.9784,0.978,0.9773,0.976,0.9785,0.9795,0.9799,0.9744,0.9744,0.9744,0.9743,0,0,0.9676,0.9687,0.9692,0.9698,0.9708,0.9719,0.9736,0.9749,0.9758,0.9767,0.9781,0.98,0.9793,0.98,0.9799,0.981,0.9835,0.9801,0.9802,0.9808,0.9865,0.9872,0.9877,0.9831,0.9832,0.9833,0.9864,0,0.9708,0.9739,0.9737,0.9765,0.9779,0.9771,0.9785,0.9793,0.9795,0.9807,0.9808,0.9822,0.9811,0.9816,0.9827,0.983,0.9847,0.9827,0.9845,0.9846,0.9844,0.9882,0.9889,0.9919,0.9868,0.9869,0.987,0,0.9751,0.9762,0.9791,0.9798,0.9804,0.9817,0.9829,0.984,0.9847,0.9848,0.9855,0.9852,0.9868,0.9853,0.9876,0.9863,0.9869,0.9872,0.9873,0.9876,0.986,0.9887,0.9929,0.9934,0.9876,0.9875,0.9875,0,0.9781,0.9802,0.9822,0.9827,0.9835,0.9845,0.9848,0.9855,0.9863,0.9872,0.9877,0.9889,0.9895,0.9904,0.9903,0.9892,0.9926,0.9911,0.9927,0.9927,0.9936,0.9936,0.998,0.9938,0.9938,0.9938,0.9938,0,0.9819,0.9837,0.9835,0.9848,0.9868,0.9865,0.9885,0.9887,0.9893,0.9906,0.9899,0.9911,0.9908,0.992,0.9919,0.9937,0.994,0.9941,0.9941,0.9943,0.9943,0.9948,0.9947,0.9939,0.9939,0.9938,0.9938,0,0.9856,0.9856,0.9877,0.9882,0.9884,0.9899,0.9903,0.9915,0.9915,0.9931,0.9935,0.9935,0.9949,0.9948,0.9963,0.9962,0.9985,0.9982,0.9983,0.9983,0.9999,0.9998,1.005,1.0057,1.0009,1.0009,1.001,0,0.9881,0.9895,0.9902,0.9909,0.9914,0.9926,0.9934,0.993,0.9938,0.9947,0.9958,0.997,0.998,1.0001,1.0003,1.0014,1.0012,1.0029,1.0014,1.0015,1.0013,1.0013,1.0015,1.0033,1.0033,1.0034,1.0034,0,0.9926,0.9924,0.9936,0.9946,0.9955,0.9964,0.9971,0.9978,0.9975,0.9984,0.9997,1.0005,1.0019,1.0032,1.0042,1.0045,1.004,1.0039,1.0043,1.0046,1.0046,1.0047,0.9993,1.0038,1.0038,1.0037,1.0037,1.0037,0.9959,0.9971,0.9977,0.9989,0.9994,1.0001,1.0012,1.0013,1.0024,1.0035,1.0032,1.0047,1.0053,1.0066,1.007,1.0081,1.0075,1.0081,1.0083,1.0085,1.0087,1.0043,1.0083,1.0083,1.0083,1.0083,1.0082,0,1.0004,1.0007,1.0018,1.0028,1.0038,1.003,1.0037,1.0046,1.0059,1.0065,1.0074,1.0089,1.01,1.0102,1.0113,1.0122,1.0119,1.0125,1.0125,1.0126,1.0092,1.0088,1.0126,1.0126,1.0126,1.0126,1.0126,1.0126,1.0029,1.0048,1.0047,1.0069,1.0071,1.0086,1.0091,1.0097,1.0101,1.0118,1.0127,1.0128,1.0132,1.0142,1.0152,1.0153,1.0157,1.0164,1.0164,1.0132,1.0128,1.0124,1.012,1.0165,1.0165,1.0197,1.0197,1.0197]},{"header":{"parameterUnit":"m.s-1","parameterCategory":1,"la1":30.2991,"la2":30.254,"lo1":-89.0895,"lo2":-89.0444,"dy":0.0017,"dx":0.0017,"nx":28,"ny":28,"refTime":"2025-11-22T03:00:00:Z","depth":0,"parameterNumber":3,"parameterNumberName":"V-component_of_WINDS"},"data":[0,0,0,0,0,0,0,0,0,0,0,0,0,0,0,0,0,0,0,0,0,0,0,0,0,0,0,0,0,0,0,0,0,0,0,0,0,0,0,0,0,0,0,0,0,0,0,0,0,0,0,0,0,0,0,0,0,0,1.956,1.956,0,1.9589,1.9589,1.959,1.9588,1.9587,1.9587,1.9586,1.9614,1.9615,1.9616,0,0,0,0,0,0,0,0,0,0,0,0,0,1.9499,1.95,1.956,1.956,1.956,1.9589,1.9589,1.959,1.9588,1.9587,1.9587,1.9586,1.9613,1.9615,1.9616,0,0,0,0,0,0,0,0,0,0,0,0,0,1.9526,1.95,1.956,1.9563,1.9564,1.9589,1.9589,1.959,1.9588,1.9587,1.9587,1.9586,1.9613,1.9614,1.9616,1.9639,0,0,1.9621,1.9622,0,0,0,0,0,0,0,0,1.9525,1.9528,1.9562,1.9563,1.9564,1.9584,1.9578,1.9606,1.9588,1.9579,1.9586,1.9586,1.9604,1.9606,1.9613,1.964,1.9641,1.9621,1.9622,1.9623,1.9624,0,0,0,0,0,0,0,1.9523,1.9527,1.9571,1.9563,1.9563,1.9562,1.9565,1.9583,1.9594,1.9579,1.9579,1.9583,1.9604,1.9612,1.9614,1.9642,1.9621,1.9623,1.9624,1.9624,1.9688,1.9689,0,0,0,0,0,0,1.952,1.9525,1.957,1.9572,1.9542,1.9563,1.9567,1.9578,1.9594,1.9596,1.9583,1.9583,1.9609,1.9612,1.9615,1.9643,1.9623,1.9625,1.9626,1.9687,1.9688,1.9689,0,0,0,0,0,0,1.9519,1.9524,1.9569,1.9549,1.9554,1.9565,1.9578,1.9579,1.9586,1.9597,1.9599,1.9589,1.9609,1.9612,1.9633,1.9644,1.9625,1.9627,1.9687,1.9688,1.9689,1.9698,0,0,0,0,0,0,1.9517,1.9524,1.9534,1.9549,1.9555,1.9588,1.9578,1.958,1.959,1.9589,1.9603,1.9605,1.9608,1.9631,1.9635,1.9645,1.9628,1.9686,1.9687,1.9688,1.9697,1.97,1.9702,0,0,0,0,0,1.9515,1.9535,1.9534,1.954,1.9568,1.9589,1.9592,1.9597,1.959,1.96,1.9607,1.9604,1.9641,1.9633,1.9637,1.9649,1.9685,1.9687,1.9688,1.9696,1.9699,1.9702,0,0,0,0,0,0,1.952,1.9537,1.9537,1.9562,1.9574,1.9588,1.96,1.96,1.9613,1.9612,1.9616,1.9619,1.964,1.9646,1.9636,1.9671,1.9662,1.9665,1.9667,1.967,1.9672,1.967,1.963,0,0,0,0,0,1.9524,1.954,1.9554,1.9575,1.9581,1.959,1.9599,1.9601,1.9613,1.9618,1.9627,1.9638,1.9652,1.9661,1.9674,1.9698,1.97,1.9708,1.971,1.9712,1.9714,1.9726,1.973,1.9694,1.9694,1.9694,0,0,1.9533,1.9544,1.9554,1.9576,1.9586,1.9602,1.9594,1.9611,1.9622,1.962,1.9641,1.9647,1.9659,1.9681,1.9692,1.9687,1.9724,1.9714,1.9715,1.9717,1.9728,1.9732,1.9735,1.9695,1.9695,1.9695,0,0,1.9556,1.9567,1.9586,1.9595,1.961,1.9615,1.962,1.9634,1.9638,1.9659,1.9657,1.967,1.9694,1.9703,1.9711,1.9737,1.9735,1.9741,1.9753,1.9765,1.9767,1.977,1.9779,1.9782,1.9743,1.9743,1.9743,0,1.9565,1.959,1.9595,1.9612,1.9622,1.9621,1.9639,1.9648,1.9666,1.9672,1.9667,1.9697,1.9705,1.9729,1.9735,1.9741,1.9746,1.974,1.9767,1.9769,1.9772,1.9781,1.9784,1.9743,1.9743,1.9743,1.9743,0,1.96,1.9617,1.963,1.9648,1.9659,1.9676,1.9683,1.9693,1.9693,1.9699,1.9719,1.9729,1.9744,1.975,1.9751,1.9774,1.9771,1.9766,1.9757,1.9776,1.9784,1.9787,1.9744,1.9744,1.9744,1.9744,0,0,1.9629,1.9649,1.9653,1.9661,1.9677,1.969,1.9706,1.9722,1.973,1.9742,1.9756,1.9776,1.9772,1.9781,1.9782,1.9793,1.9812,1.9787,1.9787,1.9791,1.9837,1.9841,1.9845,1.9811,1.9811,1.9812,1.9836,0,1.9654,1.9686,1.969,1.9717,1.9732,1.9731,1.9745,1.9756,1.9761,1.9774,1.9779,1.9793,1.9787,1.9792,1.9802,1.9808,1.9821,1.9806,1.9823,1.9824,1.9821,1.9849,1.9853,1.9876,1.984,1.984,1.9841,0,1.9689,1.9702,1.9731,1.9744,1.9751,1.9764,1.9778,1.9791,1.9802,1.9805,1.9814,1.9814,1.983,1.982,1.9842,1.9831,1.9838,1.9842,1.9843,1.9845,1.9834,1.9853,1.9884,1.9887,1.9846,1.9845,1.9845,0,1.9707,1.9733,1.9753,1.976,1.9775,1.9784,1.9791,1.9802,1.9811,1.9822,1.9828,1.9841,1.9849,1.9858,1.9862,1.9854,1.9883,1.9873,1.9886,1.9886,1.9893,1.9892,1.9926,1.9896,1.9896,1.9896,1.9896,0,1.9736,1.9754,1.9762,1.9774,1.9794,1.9797,1.9816,1.9822,1.9831,1.9844,1.9843,1.9855,1.9859,1.9871,1.9873,1.9891,1.9894,1.9896,1.9897,1.9897,1.9896,1.9902,1.99,1.9897,1.9897,1.9897,1.9896,0,1.976,1.9767,1.9789,1.9801,1.9805,1.9819,1.9829,1.984,1.9845,1.9861,1.9865,1.9872,1.9886,1.989,1.9907,1.9908,1.9929,1.9928,1.9926,1.9926,1.9938,1.9937,1.9977,1.9982,1.9948,1.9949,1.9949,0,1.9779,1.9793,1.9807,1.9816,1.9823,1.9837,1.9846,1.985,1.9859,1.9872,1.9882,1.9896,1.9908,1.993,1.9936,1.9949,1.9948,1.9961,1.995,1.9949,1.9948,1.9948,1.9949,1.9963,1.9964,1.9964,1.9964,0,1.9811,1.9813,1.9827,1.9841,1.9852,1.9863,1.9874,1.9881,1.9886,1.9896,1.9911,1.992,1.9937,1.9951,1.9964,1.9969,1.9967,1.9967,1.9971,1.9971,1.997,1.9971,1.9932,1.9967,1.9966,1.9966,1.9966,1.9966,1.9833,1.9845,1.9857,1.9871,1.988,1.989,1.9901,1.9907,1.992,1.9935,1.9936,1.9952,1.9961,1.9978,1.9984,1.9996,1.9992,1.9997,1.9998,2.0,2.0001,1.9967,1.9998,1.9998,1.9998,1.9998,1.9998,0,1.9865,1.9872,1.9886,1.9901,1.9913,1.991,1.9922,1.9931,1.9946,1.9955,1.9966,1.9983,1.9996,2.0003,2.0015,2.0024,2.0023,2.0027,2.0027,2.0028,2.0004,2.0,2.0027,2.0027,2.0027,2.0027,2.0027,2.0027,1.9883,1.9903,1.9906,1.993,1.9937,1.9953,1.996,1.9969,1.9976,1.9995,2.0006,2.001,2.0018,2.0032,2.0043,2.0045,2.0049,2.0054,2.0055,2.0032,2.0029,2.0027,2.0023,2.0055,2.0055,2.0078,2.0078,2.0078]}]]